This is the latest recevied weather packets stored in our database for station/object K3HW. If no packets are shown the sender has not sent any weather packets the latest 10 day(s).
| Time | Temp. | Humidity | Pressure | Rain* | Wind** | Luminosity | Snow |
|---|---|---|---|---|---|---|---|
| 1778124085 | 13.33° C | 81% | 1013 hPa | 0 mm | - | 0 W/m² | - |
| 1778123781 | 13.33° C | 81% | 1013.3 hPa | 0 mm | - | 0 W/m² | - |
| 1778123478 | 13.33° C | 81% | 1013 hPa | 0 mm | - | 0 W/m² | - |
| 1778123175 | 13.89° C | 82% | 1013.2 hPa | 0 mm | - | 0 W/m² | - |
| 1778122873 | 13.89° C | 83% | 1013 hPa | 0 mm | - | 0 W/m² | - |
| 1778122570 | 13.89° C | 83% | 1012.6 hPa | 0 mm | - | 0 W/m² | - |
| 1778122266 | 13.89° C | 84% | 1013 hPa | 0 mm | - | 0 W/m² | - |
| 1778121965 | 14.44° C | 84% | 1012.7 hPa | 0 mm | - | 0 W/m² | - |
| 1778121662 | 14.44° C | 85% | 1012.5 hPa | 0 mm | - | 0 W/m² | - |
| 1778121357 | 15.56° C | 86% | 1012.7 hPa | 0 mm | - | 0 W/m² | - |
| 1778121055 | 16.67° C | 87% | 1012.5 hPa | 1.78 mm | - | 0 W/m² | - |
| 1778120752 | 17.22° C | 88% | 1012.3 hPa | 1.78 mm | - | 0 W/m² | - |
| 1778120446 | 17.22° C | 87% | 1012.3 hPa | 0 mm | - | 0 W/m² | - |
| 1778120143 | 17.22° C | 87% | 1012.3 hPa | 0 mm | - | 0 W/m² | - |
| 1778119839 | 17.22° C | 87% | 1012.5 hPa | 0 mm | - | 0 W/m² | - |
| 1778119537 | 17.22° C | 88% | 1012.5 hPa | 0 mm | - | 0 W/m² | - |
| 1778119234 | 17.22° C | 88% | 1012.3 hPa | 0 mm | - | 0 W/m² | - |
| 1778118932 | 17.22° C | 88% | 1012.4 hPa | 0 mm | - | 0 W/m² | - |
| 1778118629 | 17.22° C | 88% | 1012.7 hPa | 1.27 mm | - | 0 W/m² | - |
| 1778118326 | 17.78° C | 88% | 1012.8 hPa | 1.27 mm | - | 0 W/m² | - |
| 1778118021 | 17.78° C | 88% | 1012.3 hPa | 0 mm | - | 0 W/m² | - |
| 1778117718 | 17.78° C | 88% | 1012.5 hPa | 0 mm | - | 0 W/m² | - |
| 1778117416 | 17.78° C | 88% | 1012.4 hPa | 0 mm | - | 0 W/m² | - |
| 1778117112 | 17.78° C | 87% | 1012.5 hPa | 0 mm | - | 0 W/m² | - |
| 1778116809 | 17.78° C | 87% | 1012.3 hPa | 3.56 mm | - | 0 W/m² | - |
* Rain latest hour (hover to see other rain measurements)
** Current wind speed in m/s (hover to see current wind gust speed)